Time_in_sec,gx,gy,gz
1314273528.25405455,-0.05994924,0.02311362,-0.99793379
1314273528.30146766,-0.05974798,0.02288258,-0.99795118
1314273528.35350275,-0.05981122,0.02283466,-0.99794849
1314273528.40446568,-0.05971753,0.02294174,-0.99795165
1314273528.45255303,-0.05999140,0.02305638,-0.99793258
1314273528.50160003,-0.05993259,0.02302702,-0.99793679
1314273528.55257964,-0.05983343,0.02316348,-0.99793958
1314273528.60149932,-0.05981842,0.02323336,-0.99793886
1314273528.65407348,-0.05989329,0.02312860,-0.99793680
1314273528.70152783,-0.05982016,0.02309007,-0.99794208
1314273528.75265217,-0.05969630,0.02335118,-0.99794342
1314273528.80476785,-0.05961955,0.02329104,-0.99794942
1314273528.85251760,-0.05971135,0.02314558,-0.99794731
1314273528.90164518,-0.05987845,0.02339143,-0.99793157
1314273528.95249867,-0.05980272,0.02334756,-0.99793714
1314273529.00161004,-0.05982364,0.02319655,-0.99793940
1314273529.05379987,-0.05965056,0.02308523,-0.99795234
1314273529.10161281,-0.05991153,0.02325243,-0.99793283
1314273529.15248466,-0.05982643,0.02326301,-0.99793769
1314273529.20180058,-0.05997677,0.02303789,-0.99793389
1314273529.25249672,-0.05995107,0.02292281,-0.99793808
1314273529.30164194,-0.05999782,0.02286296,-0.99793664
1314273529.35251641,-0.06009318,0.02293470,-0.99792926
1314273529.40150619,-0.06006289,0.02263910,-0.99793783
1314273529.45247912,-0.06006915,0.02251774,-0.99794020
1314273529.50154018,-0.05987710,0.02261250,-0.99794960
1314273529.55288005,-0.05995814,0.02262649,-0.99794442
1314273529.60448623,-0.06004309,0.02279665,-0.99793544
1314273529.65366364,-0.06002615,0.02282865,-0.99793573
1314273529.70146680,-0.05998689,0.02273765,-0.99794016
1314273529.75247097,-0.05974346,0.02287553,-0.99795162
1314273529.80149841,-0.05957101,0.02300429,-0.99795897
1314273529.85248208,-0.05947049,0.02309220,-0.99796293
1314273529.90160131,-0.05957833,0.02317203,-0.99795465
1314273529.95346308,-0.05937307,0.02328689,-0.99796421
1314273530.00154757,-0.05962884,0.02320868,-0.99795078
1314273530.05354381,-0.05973294,0.02323863,-0.99794386
1314273530.10149145,-0.05940693,0.02324098,-0.99796326
1314273530.15350008,-0.05933462,0.02294553,-0.99797440
1314273530.20162773,-0.05932597,0.02295349,-0.99797473
1314273530.25246191,-0.05927516,0.02321049,-0.99797181
1314273530.30151606,-0.05914990,0.02320263,-0.99797942
1314273530.35391116,-0.05931485,0.02306432,-0.99797284
1314273530.40446687,-0.05924521,0.02297655,-0.99797900
1314273530.45277095,-0.05899981,0.02317607,-0.99798892
1314273530.50053477,-0.05913545,0.02314917,-0.99798152
1314273530.55250549,-0.05899456,0.02325543,-0.99798739
1314273530.60529971,-0.05907138,0.02336158,-0.99798037
1314273530.65376806,-0.05902438,0.02340471,-0.99798214
1314273530.70450544,-0.05894485,0.02349440,-0.99798473
1314273530.75348806,-0.05898318,0.02368478,-0.99797796
1314273530.80203080,-0.05904110,0.02377984,-0.99797228
1314273530.85333705,-0.05901193,0.02374292,-0.99797488
1314273530.90160465,-0.05940420,0.02358110,-0.99795545
1314273530.95249510,-0.05940244,0.02361173,-0.99795483
1314273531.00162292,-0.05926675,0.02370921,-0.99796058
1314273531.05350804,-0.05934996,0.02392969,-0.99795038
1314273531.10160255,-0.05930478,0.02393083,-0.99795303
1314273531.15359664,-0.05934981,0.02408341,-0.99794669
1314273531.20633292,-0.05943244,0.02405142,-0.99794254
1314273531.25259638,-0.05940129,0.02376748,-0.99795120
1314273531.30135417,-0.05935714,0.02370674,-0.99795527
1314273531.35268879,-0.05943960,0.02358678,-0.99795320
1314273531.40155077,-0.05960292,0.02375117,-0.99793956
1314273531.45248699,-0.05981801,0.02375273,-0.99792666
1314273531.50154018,-0.06000044,0.02379450,-0.99791471
1314273531.55361962,-0.05984201,0.02363371,-0.99792804
1314273531.60171056,-0.05987406,0.02350270,-0.99792922
1314273531.65259957,-0.05993903,0.02361754,-0.99792260
1314273531.70159817,-0.05986932,0.02352542,-0.99792897
1314273531.75247002,-0.06003291,0.02328767,-0.99792471
1314273531.80157065,-0.06003433,0.02337777,-0.99792252
1314273531.85367346,-0.06016248,0.02318632,-0.99791927
1314273531.89349675,-0.06021176,0.02340949,-0.99791109
1314273531.95246696,-0.06034560,0.02339697,-0.99790330
1314273532.00160456,-0.06038062,0.02370723,-0.99789386
1314273532.05360341,-0.06024962,0.02372033,-0.99790146
1314273532.10546279,-0.06045313,0.02352643,-0.99789375
1314273532.15469384,-0.06067016,0.02355498,-0.99787990
1314273532.20162082,-0.06070543,0.02343454,-0.99788059
1314273532.25381207,-0.06103377,0.02363207,-0.99785590
1314273532.30160713,-0.06094672,0.02358352,-0.99786237
1314273532.35360885,-0.06093734,0.02336236,-0.99786815
1314273532.40183139,-0.06075990,0.02341379,-0.99787776
1314273532.45351768,-0.06052430,0.02334669,-0.99789365
1314273532.50150919,-0.06069070,0.02335299,-0.99788340
1314273532.55246329,-0.06069491,0.02333980,-0.99788345
1314273532.60162854,-0.06088838,0.02331863,-0.99787216
1314273532.65368462,-0.06081035,0.02343436,-0.99787421
1314273532.70166802,-0.06098070,0.02325029,-0.99786812
1314273532.75250316,-0.06123579,0.02330466,-0.99785123
1314273532.80272126,-0.06148839,0.02331223,-0.99783552
1314273532.85249162,-0.06179706,0.02306804,-0.99782212
1314273532.90159488,-0.06187102,0.02323607,-0.99781364
1314273532.95249772,-0.06191318,0.02308033,-0.99781464
1314273533.00061202,-0.06169211,0.02302595,-0.99782959
1314273533.05354762,-0.06158828,0.02287577,-0.99783946
1314273533.10149837,-0.06173578,0.02300726,-0.99782732
1314273533.15247893,-0.06181161,0.02291751,-0.99782469
1314273533.20444822,-0.06157232,0.02283217,-0.99784144
1314273533.25348020,-0.06163665,0.02298542,-0.99783395
1314273533.30152965,-0.06192610,0.02284341,-0.99781929
1314273533.35255742,-0.06160375,0.02284801,-0.99783914
1314273533.40153599,-0.06165828,0.02270609,-0.99783901
1314273533.45428109,-0.06159063,0.02283216,-0.99784031
1314273533.50054502,-0.06135463,0.02286880,-0.99785401
1314273533.55247140,-0.06130894,0.02265515,-0.99786169
1314273533.60240102,-0.06116537,0.02265960,-0.99787040
1314273533.65249586,-0.06123568,0.02265120,-0.99786628
1314273533.70162010,-0.06118581,0.02286876,-0.99786438
1314273533.75245547,-0.06122608,0.02289815,-0.99786123
1314273533.80146456,-0.06119157,0.02268319,-0.99786826
1314273533.85373473,-0.06117423,0.02254582,-0.99787244
1314273533.90449381,-0.06124862,0.02235260,-0.99787222
1314273533.95251489,-0.06130634,0.02237544,-0.99786816
1314273534.00156856,-0.06136302,0.02252439,-0.99786133
1314273534.05305624,-0.06159811,0.02249502,-0.99784751
1314273534.10165548,-0.06168935,0.02256267,-0.99784034
1314273534.15415621,-0.06162588,0.02264544,-0.99784239
1314273534.20518231,-0.06175572,0.02256645,-0.99783615
1314273534.25247025,-0.06186135,0.02250079,-0.99783109
1314273534.30151486,-0.06191702,0.02223824,-0.99783352
1314273534.35248995,-0.06197036,0.02235780,-0.99782754
1314273534.40311790,-0.06194779,0.02239224,-0.99782817
1314273534.45258641,-0.06183403,0.02250103,-0.99783278
1314273534.50160980,-0.06184299,0.02264646,-0.99782893
1314273534.55247021,-0.06165742,0.02276649,-0.99783769
1314273534.60164452,-0.06169255,0.02285947,-0.99783339
1314273534.65363741,-0.06161170,0.02287001,-0.99783814
1314273534.70447540,-0.06163938,0.02309242,-0.99783131
1314273534.75246620,-0.06158817,0.02306297,-0.99783515
1314273534.80226612,-0.06181282,0.02302245,-0.99782220
1314273534.85260248,-0.06183894,0.02286048,-0.99782431
1314273534.90195036,-0.06162696,0.02286100,-0.99783741
1314273534.95246720,-0.06172806,0.02288844,-0.99783053
1314273535.00453210,-0.06170543,0.02271973,-0.99783578
1314273535.05246186,-0.06170700,0.02267573,-0.99783669
1314273535.10516787,-0.06167896,0.02283291,-0.99783484
1314273535.15334082,-0.06170538,0.02278487,-0.99783430
1314273535.20185566,-0.06179549,0.02288744,-0.99782638
1314273535.25258923,-0.06188580,0.02296668,-0.99781896
1314273535.30448031,-0.06180428,0.02298817,-0.99782352
1314273535.35248733,-0.06183533,0.02301543,-0.99782097
1314273535.40166640,-0.06168375,0.02302799,-0.99783006
1314273535.45367050,-0.06154796,0.02321295,-0.99783416
1314273535.50458884,-0.06125070,0.02305373,-0.99785614
1314273535.55246615,-0.06106912,0.02332545,-0.99786096
1314273535.60171151,-0.06129711,0.02328595,-0.99784790
1314273535.65248203,-0.06128928,0.02329513,-0.99784817
1314273535.70159817,-0.06140863,0.02328169,-0.99784114
1314273535.75257063,-0.06132365,0.02330300,-0.99784587
1314273535.80147648,-0.06137429,0.02345095,-0.99783929
1314273535.85247350,-0.06134926,0.02333053,-0.99784365
1314273535.90161133,-0.06137025,0.02329184,-0.99784327
1314273535.95261025,-0.06148188,0.02324871,-0.99783740
1314273536.00158191,-0.06137415,0.02320669,-0.99784501
1314273536.05362082,-0.06121276,0.02334924,-0.99785160
1314273536.10065413,-0.06138012,0.02330785,-0.99784228
1314273536.15244937,-0.06133358,0.02325839,-0.99784630
1314273536.20158935,-0.06124848,0.02328872,-0.99785082
1314273536.25043249,-0.06115158,0.02334405,-0.99785547
1314273536.30154943,-0.06102396,0.02350136,-0.99785959
1314273536.35259986,-0.06115076,0.02335221,-0.99785533
1314273536.40169096,-0.06105164,0.02327269,-0.99786326
1314273536.45255494,-0.06106596,0.02331704,-0.99786135
1314273536.50560236,-0.06105316,0.02326033,-0.99786345
1314273536.55246997,-0.06106756,0.02333525,-0.99786082
1314273536.60156345,-0.06123378,0.02322969,-0.99785310
1314273536.65244532,-0.06115936,0.02333544,-0.99785519
1314273536.70151043,-0.06140639,0.02315293,-0.99784428
1314273536.75266910,-0.06142235,0.02347837,-0.99783569
1314273536.80230355,-0.06150274,0.02340850,-0.99783238
1314273536.85250235,-0.06147770,0.02352694,-0.99783114
1314273536.90157056,-0.06168540,0.02355119,-0.99781774
1314273536.95241380,-0.06176907,0.02335266,-0.99781724
1314273537.00458956,-0.06192852,0.02329593,-0.99780868
1314273537.05413556,-0.06202109,0.02315681,-0.99780617
1314273537.10161042,-0.06207214,0.02315453,-0.99780305
1314273537.15248632,-0.06214904,0.02337360,-0.99779315
1314273537.20217705,-0.06187069,0.02330507,-0.99781205
1314273537.25251007,-0.06191292,0.02333996,-0.99780862
1314273537.30161071,-0.06220564,0.02312077,-0.99779551
1314273537.35254383,-0.06228130,0.02313528,-0.99779046
1314273537.40160465,-0.06233437,0.02314791,-0.99778685
1314273537.45401549,-0.06238227,0.02309767,-0.99778502
1314273537.50458193,-0.06248402,0.02320025,-0.99777628
1314273537.55250001,-0.06223150,0.02321253,-0.99779177
1314273537.60292411,-0.06244244,0.02314087,-0.99778026
1314273537.65259886,-0.06276388,0.02323527,-0.99775790
1314273537.70160580,-0.06281849,0.02335141,-0.99775175
1314273537.75248122,-0.06271278,0.02355184,-0.99775369
1314273537.80161405,-0.06285228,0.02347839,-0.99774664
1314273537.85385895,-0.06261161,0.02353147,-0.99776052
1314273537.90450072,-0.06268148,0.02349662,-0.99775695
1314273537.95346093,-0.06264186,0.02369415,-0.99775477
1314273538.00188780,-0.06265317,0.02369415,-0.99775406
1314273538.05258536,-0.06255888,0.02347907,-0.99776506
1314273538.10450244,-0.06287177,0.02357125,-0.99774322
1314273538.15248752,-0.06308365,0.02340019,-0.99773387
1314273538.20162225,-0.06309266,0.02322468,-0.99773741
1314273538.25374126,-0.06306485,0.02338236,-0.99773548
1314273538.29349375,-0.06294942,0.02344980,-0.99774119
1314273538.35361385,-0.06314959,0.02356534,-0.99772582
1314273538.40447688,-0.06325994,0.02380043,-0.99771324
1314273538.45249057,-0.06337189,0.02398355,-0.99770176
1314273538.50163937,-0.06323126,0.02392469,-0.99771209
1314273538.55264759,-0.06304413,0.02368086,-0.99772975
1314273538.60167766,-0.06301073,0.02384967,-0.99772784
1314273538.65246129,-0.06291300,0.02407861,-0.99772851
1314273538.70059490,-0.06284920,0.02400972,-0.99773419
1314273538.75362682,-0.06278724,0.02382680,-0.99774248
1314273538.80180979,-0.06267676,0.02389126,-0.99774788
1314273538.85362625,-0.06262216,0.02380728,-0.99775332
1314273538.90160131,-0.06269939,0.02360162,-0.99775335
1314273538.95249629,-0.06279819,0.02382826,-0.99774175
1314273539.00059867,-0.06266861,0.02368833,-0.99775323
1314273539.05358768,-0.06266110,0.02378287,-0.99775145
1314273539.10146832,-0.06261467,0.02376742,-0.99775474
1314273539.15245533,-0.06263091,0.02367864,-0.99775583
1314273539.20049572,-0.06280071,0.02370212,-0.99774460
1314273539.25259781,-0.06276723,0.02350916,-0.99775127
1314273539.30059719,-0.06275905,0.02377529,-0.99774548
1314273539.35248661,-0.06272869,0.02372882,-0.99774849
1314273539.40159035,-0.06260971,0.02388443,-0.99775225
1314273539.45043850,-0.06286882,0.02393472,-0.99773475
1314273539.50044870,-0.06285163,0.02375385,-0.99774016
1314273539.55249691,-0.06291682,0.02389517,-0.99773268
1314273539.60368729,-0.06283095,0.02376666,-0.99774116
1314273539.65247011,-0.06273760,0.02389441,-0.99774398
1314273539.70544767,-0.06268782,0.02385023,-0.99774817
1314273539.75267720,-0.06267340,0.02380008,-0.99775027
1314273539.80159330,-0.06269610,0.02377275,-0.99774950
1314273539.85390067,-0.06285884,0.02363743,-0.99774247
1314273539.90461731,-0.06316333,0.02386860,-0.99771774
1314273539.94564700,-0.06341066,0.02396193,-0.99769981
1314273540.00155497,-0.06339084,0.02386822,-0.99770332
1314273540.05346179,-0.06342198,0.02393696,-0.99769969
1314273540.10616708,-0.06355465,0.02393043,-0.99769141
1314273540.15246773,-0.06385919,0.02397357,-0.99767092
1314273540.20147681,-0.06380106,0.02409123,-0.99767181
1314273540.25400615,-0.06389627,0.02387381,-0.99767094
1314273540.30447364,-0.06683362,0.02604863,-0.99742405
1314273540.35353184,-0.06684908,0.02608547,-0.99742205
1314273540.40448260,-0.06669190,0.02618539,-0.99742996
1314273540.45265245,-0.06671567,0.02617711,-0.99742858
1314273540.50457191,-0.06711762,0.02620762,-0.99740082
1314273540.55247331,-0.06562169,0.02619551,-0.99750067
1314273540.60165024,-0.06578774,0.02616063,-0.99749065
1314273540.65401268,-0.06567532,0.02610482,-0.99749952
1314273540.70457840,-0.06562149,0.02636489,-0.99749622
1314273540.75350642,-0.06585772,0.02631190,-0.99748205
1314273540.80191898,-0.06487109,0.02635248,-0.99754563
1314273540.85247183,-0.06480427,0.02619669,-0.99755408
1314273540.90597439,-0.06461557,0.02661526,-0.99755524
1314273540.94445610,-0.06446055,0.02671302,-0.99756266
1314273541.00554132,-0.06433098,0.02665743,-0.99757251
1314273541.05390191,-0.06283038,0.02613362,-0.99768200
1314273541.10463405,-0.06286855,0.02598338,-0.99768352
1314273541.15353489,-0.06273371,0.02596338,-0.99769253
1314273541.19244432,-0.06299290,0.02603103,-0.99767444
1314273541.25253105,-0.06304930,0.02602829,-0.99767094
1314273541.30950332,-0.06202869,0.02617661,-0.99773104
1314273541.35248637,-0.06211190,0.02604477,-0.99772931
1314273541.40551066,-0.06195170,0.02636002,-0.99773099
1314273541.44174194,-0.06200504,0.02627031,-0.99773005
1314273541.50549626,-0.06189881,0.02633574,-0.99773492
1314273541.55261302,-0.06303508,0.02722503,-0.99763990
1314273541.60164046,-0.06308644,0.02747006,-0.99762994
1314273541.65251064,-0.06326491,0.02736681,-0.99762148
1314273541.69361734,-0.06341972,0.02718737,-0.99761655
1314273541.75249624,-0.06354114,0.02724940,-0.99760713
1314273541.80449128,-0.06491369,0.02838831,-0.99748700
1314273541.85245323,-0.06490927,0.02822890,-0.99749181
1314273541.90164447,-0.06469588,0.02816836,-0.99750739
1314273541.94162297,-0.06469833,0.02803137,-0.99751109
1314273542.00150537,-0.06464578,0.02807660,-0.99751322
1314273542.05353975,-0.06522597,0.02875742,-0.99745606
1314273542.10160160,-0.06504027,0.02885638,-0.99746532
1314273542.15248132,-0.06498558,0.02870795,-0.99747317
1314273542.19248462,-0.06478865,0.02874020,-0.99748505
1314273542.25349116,-0.06476118,0.02866413,-0.99748903
1314273542.30044985,-0.06546660,0.02845929,-0.99744884
1314273542.35251379,-0.06525602,0.02846948,-0.99746235
1314273542.40157604,-0.06522651,0.02853923,-0.99746229
1314273542.45350122,-0.06527473,0.02865556,-0.99745580
1314273542.50164318,-0.06521663,0.02868406,-0.99745878
1314273542.55247045,-0.06515462,0.02791618,-0.99748462
1314273542.60499477,-0.06519050,0.02809204,-0.99747734
1314273542.65370607,-0.06546304,0.02792880,-0.99746407
1314273542.69349265,-0.06560504,0.02771533,-0.99746070
1314273542.75361109,-0.06555072,0.02774692,-0.99746339
1314273542.80176902,-0.06497835,0.02614351,-0.99754415
1314273542.85360146,-0.06491980,0.02623533,-0.99754555
1314273542.90950084,-0.06496011,0.02625851,-0.99754232
1314273542.94450021,-0.06510391,0.02632138,-0.99753129
1314273543.00161552,-0.06487309,0.02637030,-0.99754503
1314273543.05359006,-0.06369346,0.02487881,-0.99765935
1314273543.10450053,-0.06379433,0.02493399,-0.99765153
1314273543.15248179,-0.06366311,0.02464439,-0.99766711
1314273543.19244075,-0.06358228,0.02454522,-0.99767471
1314273543.25349665,-0.06389122,0.02469463,-0.99765129
1314273543.30450416,-0.06264005,0.02444078,-0.99773688
1314273543.35249567,-0.06234641,0.02465592,-0.99774997
1314273543.40161943,-0.06217451,0.02459891,-0.99776211
1314273543.44147539,-0.06198869,0.02475407,-0.99776983
1314273543.50162029,-0.06180254,0.02450704,-0.99778748
1314273543.55251527,-0.05908628,0.02266442,-0.99799556
1314273543.60160160,-0.05919104,0.02262577,-0.99799023
1314273543.65363312,-0.05926518,0.02259453,-0.99798654
1314273543.69246316,-0.05929623,0.02282947,-0.99797934
1314273543.75524139,-0.05921061,0.02263019,-0.99798897
1314273543.80160141,-0.05674740,0.02139965,-0.99815920
1314273543.85358191,-0.05673707,0.02170608,-0.99815317
1314273543.90150023,-0.05670369,0.02179405,-0.99815315
1314273543.94169736,-0.05657552,0.02153152,-0.99816612
1314273544.00319910,-0.05656142,0.02138005,-0.99817018
1314273544.05355263,-0.05582983,0.02034653,-0.99823296
1314273544.10949874,-0.05576364,0.02038672,-0.99823584
1314273544.15354371,-0.05599562,0.02035810,-0.99822344
1314273544.19245267,-0.05632023,0.02024403,-0.99820750
1314273544.25252438,-0.05610742,0.02021813,-0.99822001
1314273544.30448461,-0.05562845,0.02049332,-0.99824120
1314273544.35354614,-0.05539963,0.02036085,-0.99825664
1314273544.40179157,-0.05546072,0.02031369,-0.99825421
1314273544.44521284,-0.05548425,0.02011213,-0.99825698
1314273544.50448370,-0.05540972,0.01995911,-0.99826419
1314273544.55249596,-0.05509345,0.01926597,-0.99829531
1314273544.60160565,-0.05519301,0.01917728,-0.99829152
1314273544.65245914,-0.05544126,0.01945107,-0.99827247
1314273544.69248128,-0.05568454,0.01948347,-0.99825830
1314273544.75349903,-0.05582213,0.01962825,-0.99824778
1314273544.80167222,-0.05703676,0.01913152,-0.99818876
1314273544.85247254,-0.05679970,0.01907649,-0.99820333
1314273544.90159464,-0.05667332,0.01920295,-0.99820809
1314273544.94329977,-0.05638060,0.01905605,-0.99822748
1314273545.00048327,-0.05642248,0.01902726,-0.99822566
1314273545.05352473,-0.05829330,0.01994193,-0.99810030
1314273545.10049319,-0.05836819,0.01974625,-0.99809981
1314273545.15250874,-0.05853312,0.01987793,-0.99808754
1314273545.19245839,-0.05860440,0.01975715,-0.99808576
1314273545.25258780,-0.05847678,0.01965271,-0.99809530
1314273545.30053830,-0.06062319,0.01988225,-0.99796269
1314273545.35248327,-0.06068397,0.01985797,-0.99795948
1314273545.40510416,-0.06056237,0.01979963,-0.99796802
1314273545.44197440,-0.06070541,0.01976609,-0.99796000
1314273545.50506043,-0.06051951,0.01949770,-0.99797657
1314273545.55250502,-0.06165506,0.02148637,-0.99786622
1314273545.60177350,-0.06151862,0.02141201,-0.99787624
1314273545.65330267,-0.06117556,0.02146170,-0.99789626
1314273545.69647670,-0.06100023,0.02139262,-0.99790848
1314273545.75350165,-0.06104876,0.02156618,-0.99790177
1314273545.80152845,-0.06348736,0.02350131,-0.99770589
1314273545.85351992,-0.06333441,0.02352671,-0.99771501
1314273545.90161109,-0.06331573,0.02343269,-0.99771841
1314273545.94161630,-0.06316211,0.02347242,-0.99772721
1314273546.00147271,-0.06264181,0.02380380,-0.99775217
1314273546.05253267,-0.06251623,0.02380179,-0.99776009
1314273546.10445166,-0.06259160,0.02403717,-0.99774972
